contact: severine.martini@mio.osupytheas.fr, dominique.lefevre@mio.osupytheas.fr
Project:EMSO Ligure-ouest http://www.emso-fr.org/EMSO-France
Sensor Microcat Sea-Bird SBE37 SMP,  Serial 57510 
DOI : "https://doi.org/10.17882/97948" 
Title:EMSO Ligure Ouest : Data Bathybot capteur Microcat - deploiement 2023-04-28
Datetime,Profondeur,Latitude,Longitude,Temperature,Conductivite,Pression,Salinite
time,m,degree_north,degree_east,degree_C,S/m,db,PSU 
2023-10-23T07:42:49,2420,42.8014,5.9826,13.2981,4.59938,2453.762,38.4895
2023-10-23T07:45:49,2420,42.8014,5.9826,13.2980,4.59940,2453.740,38.4897
2023-10-23T07:48:49,2420,42.8014,5.9826,13.2984,4.59946,2453.695,38.4900
2023-10-23T07:51:49,2420,42.8014,5.9826,13.2985,4.59952,2453.732,38.4905
2023-10-23T07:54:49,2420,42.8014,5.9826,13.2985,4.59965,2453.672,38.4917
2023-10-23T07:57:49,2420,42.8014,5.9826,13.2987,4.59941,2453.709,38.4892
2023-10-23T08:00:49,2420,42.8014,5.9826,13.2987,4.59962,2453.672,38.4912
2023-10-23T08:03:49,2420,42.8014,5.9826,13.2982,4.59943,2453.695,38.4898
2023-10-23T08:06:49,2420,42.8014,5.9826,13.2982,4.59942,2453.695,38.4898
2023-10-23T08:09:49,2420,42.8014,5.9826,13.2983,4.59961,2453.695,38.4915
2023-10-23T08:12:49,2420,42.8014,5.9826,13.2985,4.59941,2453.695,38.4894
2023-10-23T08:15:49,2420,42.8014,5.9826,13.2983,4.59949,2453.717,38.4903
2023-10-23T08:18:49,2420,42.8014,5.9826,13.2979,4.59947,2453.672,38.4906
2023-10-23T08:21:49,2420,42.8014,5.9826,13.2980,4.59960,2453.695,38.4917
2023-10-23T08:24:49,2420,42.8014,5.9826,13.2981,4.59944,2453.732,38.4900
2023-10-23T08:27:49,2420,42.8014,5.9826,13.2988,4.59940,2453.695,38.4890
2023-10-23T08:30:49,2420,42.8014,5.9826,13.2985,4.59971,2453.680,38.4922
2023-10-23T08:33:49,2420,42.8014,5.9826,13.2985,4.59951,2453.717,38.4903
2023-10-23T08:36:49,2420,42.8014,5.9826,13.2985,4.59938,2453.672,38.4892
2023-10-23T08:39:49,2420,42.8014,5.9826,13.2982,4.59946,2453.657,38.4902
2023-10-23T08:42:49,2420,42.8014,5.9826,13.2982,4.59959,2453.672,38.4914
2023-10-23T08:45:49,2420,42.8014,5.9826,13.2989,4.59953,2453.695,38.4901
2023-10-23T08:48:49,2420,42.8014,5.9826,13.2985,4.59942,2453.717,38.4895
2023-10-23T08:51:49,2420,42.8014,5.9826,13.2990,4.59937,2453.709,38.4884
2023-10-23T08:54:49,2420,42.8014,5.9826,13.2986,4.59948,2453.762,38.4898
2023-10-23T08:57:49,2420,42.8014,5.9826,13.2985,4.59957,2453.687,38.4910
2023-10-23T09:00:49,2420,42.8014,5.9826,13.2990,4.59968,2453.717,38.4915
2023-10-23T09:03:49,2420,42.8014,5.9826,13.2982,4.59955,2453.717,38.4910
2023-10-23T09:06:49,2420,42.8014,5.9826,13.2986,4.59971,2453.717,38.4921
2023-10-23T09:09:49,2420,42.8014,5.9826,13.2984,4.59965,2453.740,38.4918
2023-10-23T09:12:49,2420,42.8014,5.9826,13.2986,4.59966,2453.740,38.4916
2023-10-23T09:15:49,2420,42.8014,5.9826,13.2988,4.59959,2453.717,38.4908
2023-10-23T09:18:49,2420,42.8014,5.9826,13.2996,4.59972,2453.702,38.4913
2023-10-23T09:21:49,2420,42.8014,5.9826,13.2995,4.59972,2453.695,38.4913
2023-10-23T09:24:49,2420,42.8014,5.9826,13.2992,4.59982,2453.717,38.4925
2023-10-23T09:27:49,2420,42.8014,5.9826,13.2992,4.59978,2453.740,38.4921
2023-10-23T09:30:49,2420,42.8014,5.9826,13.2988,4.59969,2453.740,38.4917
2023-10-23T09:33:49,2420,42.8014,5.9826,13.2981,4.59955,2453.717,38.4911
2023-10-23T09:36:49,2420,42.8014,5.9826,13.2985,4.59961,2453.717,38.4913
2023-10-23T09:39:49,2420,42.8014,5.9826,13.2982,4.59947,2453.695,38.4903
2023-10-23T09:42:49,2420,42.8014,5.9826,13.2983,4.59939,2453.717,38.4894
2023-10-23T09:45:49,2420,42.8014,5.9826,13.2979,4.59941,2453.732,38.4899
2023-10-23T09:48:49,2420,42.8014,5.9826,13.2980,4.59946,2453.740,38.4903
2023-10-23T09:51:49,2420,42.8014,5.9826,13.2980,4.59939,2453.740,38.4896
2023-10-23T09:54:49,2420,42.8014,5.9826,13.2978,4.59930,2453.740,38.4891
2023-10-23T09:57:49,2420,42.8014,5.9826,13.2978,4.59935,2453.717,38.4895
2023-10-23T10:00:49,2420,42.8014,5.9826,13.2981,4.59937,2453.754,38.4894
2023-10-23T10:03:49,2420,42.8014,5.9826,13.2977,4.59946,2453.754,38.4906
2023-10-23T10:06:49,2420,42.8014,5.9826,13.2981,4.59948,2453.748,38.4904
2023-10-23T10:09:49,2420,42.8014,5.9826,13.2981,4.59934,2453.740,38.4891
2023-10-23T10:12:49,2420,42.8014,5.9826,13.2979,4.59934,2453.762,38.4893
2023-10-23T10:15:49,2420,42.8014,5.9826,13.2980,4.59931,2453.740,38.4890
2023-10-23T10:18:49,2420,42.8014,5.9826,13.2987,4.59929,2453.762,38.4880
2023-10-23T10:21:49,2420,42.8014,5.9826,13.2982,4.59928,2453.740,38.4885
2023-10-23T10:24:49,2420,42.8014,5.9826,13.2982,4.59928,2453.740,38.4885
2023-10-23T10:27:49,2420,42.8014,5.9826,13.2979,4.59929,2453.740,38.4889
2023-10-23T10:30:49,2420,42.8014,5.9826,13.2976,4.59930,2453.800,38.4892
2023-10-23T10:33:49,2420,42.8014,5.9826,13.2985,4.59930,2453.762,38.4883
2023-10-23T10:36:49,2420,42.8014,5.9826,13.2979,4.59928,2453.740,38.4887
2023-10-23T10:39:49,2420,42.8014,5.9826,13.2983,4.59928,2453.740,38.4884
2023-10-23T10:42:49,2420,42.8014,5.9826,13.2978,4.59929,2453.762,38.4890
2023-10-23T10:45:49,2420,42.8014,5.9826,13.2978,4.59928,2453.740,38.4888
2023-10-23T10:48:49,2420,42.8014,5.9826,13.2979,4.59930,2453.785,38.4889
2023-10-23T10:51:49,2420,42.8014,5.9826,13.2982,4.59930,2453.762,38.4887
2023-10-23T10:54:49,2420,42.8014,5.9826,13.2979,4.59928,2453.762,38.4888
2023-10-23T10:57:49,2420,42.8014,5.9826,13.2981,4.59928,2453.762,38.4886
2023-10-23T11:00:49,2420,42.8014,5.9826,13.2977,4.59928,2453.762,38.4889
2023-10-23T11:03:49,2420,42.8014,5.9826,13.2978,4.59928,2453.785,38.4888
2023-10-23T11:06:49,2420,42.8014,5.9826,13.2982,4.59928,2453.762,38.4885
2023-10-23T11:09:49,2420,42.8014,5.9826,13.2982,4.59928,2453.785,38.4885
2023-10-23T11:12:49,2420,42.8014,5.9826,13.2982,4.59929,2453.777,38.4885
2023-10-23T11:15:49,2420,42.8014,5.9826,13.2982,4.59930,2453.785,38.4886
2023-10-23T11:18:49,2420,42.8014,5.9826,13.2982,4.59929,2453.785,38.4885
2023-10-23T11:21:49,2420,42.8014,5.9826,13.2979,4.59930,2453.785,38.4889
2023-10-23T11:24:49,2420,42.8014,5.9826,13.2980,4.59930,2453.785,38.4888
2023-10-23T11:27:49,2420,42.8014,5.9826,13.2975,4.59928,2453.785,38.4891
2023-10-23T11:30:49,2420,42.8014,5.9826,13.2979,4.59928,2453.807,38.4887
2023-10-23T11:33:49,2420,42.8014,5.9826,13.2979,4.59928,2453.807,38.4886
2023-10-23T11:36:49,2420,42.8014,5.9826,13.2980,4.59928,2453.785,38.4886
2023-10-23T11:39:49,2420,42.8014,5.9826,13.2978,4.59928,2453.762,38.4888
2023-10-23T11:42:49,2420,42.8014,5.9826,13.2975,4.59929,2453.785,38.4893
2023-10-23T11:45:49,2420,42.8014,5.9826,13.2978,4.59928,2453.807,38.4889
2023-10-23T11:48:49,2420,42.8014,5.9826,13.2976,4.59928,2453.785,38.4890
2023-10-23T11:51:49,2420,42.8014,5.9826,13.2982,4.59929,2453.807,38.4885
2023-10-23T11:54:49,2420,42.8014,5.9826,13.2978,4.59928,2453.807,38.4889
2023-10-23T11:57:49,2420,42.8014,5.9826,13.2982,4.59928,2453.785,38.4885
2023-10-23T12:00:49,2420,42.8014,5.9826,13.2979,4.59928,2453.785,38.4888
2023-10-23T12:03:49,2420,42.8014,5.9826,13.2982,4.59929,2453.785,38.4885
2023-10-23T12:06:49,2420,42.8014,5.9826,13.2984,4.59929,2453.770,38.4883
2023-10-23T12:09:49,2420,42.8014,5.9826,13.2980,4.59930,2453.830,38.4888
2023-10-23T12:12:49,2420,42.8014,5.9826,13.2979,4.59929,2453.800,38.4888
2023-10-23T12:15:49,2420,42.8014,5.9826,13.2979,4.59927,2453.807,38.4886
2023-10-23T12:18:49,2420,42.8014,5.9826,13.2979,4.59928,2453.815,38.4888
2023-10-23T12:21:49,2420,42.8014,5.9826,13.2974,4.59928,2453.785,38.4893
2023-10-23T12:24:49,2420,42.8014,5.9826,13.2980,4.59928,2453.830,38.4886
2023-10-23T12:27:49,2420,42.8014,5.9826,13.2978,4.59928,2453.807,38.4889
2023-10-23T12:30:50,2420,42.8014,5.9826,13.2979,4.59928,2453.793,38.4887
2023-10-23T12:33:49,2420,42.8014,5.9826,13.2979,4.59928,2453.822,38.4888
2023-10-23T12:36:49,2420,42.8014,5.9826,13.2978,4.59928,2453.845,38.4888
2023-10-23T12:39:49,2420,42.8014,5.9826,13.2978,4.59928,2453.830,38.4888
2023-10-23T12:42:49,2420,42.8014,5.9826,13.2979,4.59928,2453.830,38.4887
2023-10-23T12:45:49,2420,42.8014,5.9826,13.2980,4.59927,2453.830,38.4885
2023-10-23T12:48:49,2420,42.8014,5.9826,13.2976,4.59928,2453.830,38.4890
2023-10-23T12:51:49,2420,42.8014,5.9826,13.2974,4.59927,2453.807,38.4891
2023-10-23T12:54:49,2420,42.8014,5.9826,13.2979,4.59927,2453.830,38.4886
2023-10-23T12:57:49,2420,42.8014,5.9826,13.2978,4.59928,2453.853,38.4888
2023-10-23T13:00:50,2420,42.8014,5.9826,13.2978,4.59928,2453.845,38.4888
2023-10-23T13:03:49,2420,42.8014,5.9826,13.2979,4.59928,2453.830,38.4888
2023-10-23T13:06:49,2420,42.8014,5.9826,13.2977,4.59928,2453.845,38.4889
2023-10-23T13:09:49,2420,42.8014,5.9826,13.2977,4.59927,2453.830,38.4888
2023-10-23T13:12:49,2420,42.8014,5.9826,13.2977,4.59928,2453.830,38.4890
2023-10-23T13:15:49,2420,42.8014,5.9826,13.2979,4.59928,2453.830,38.4886
2023-10-23T13:18:49,2420,42.8014,5.9826,13.2979,4.59928,2453.830,38.4888
2023-10-23T13:21:49,2420,42.8014,5.9826,13.2979,4.59928,2453.853,38.4887
2023-10-23T13:24:49,2420,42.8014,5.9826,13.2975,4.59928,2453.853,38.4890
2023-10-23T13:27:49,2420,42.8014,5.9826,13.2980,4.59928,2453.853,38.4886
2023-10-23T13:30:49,2420,42.8014,5.9826,13.2977,4.59927,2453.853,38.4888
2023-10-23T13:33:49,2420,42.8014,5.9826,13.2977,4.59928,2453.853,38.4889
2023-10-23T13:36:49,2420,42.8014,5.9826,13.2977,4.59928,2453.875,38.4889
2023-10-23T13:39:49,2420,42.8014,5.9826,13.2974,4.59929,2453.853,38.4893
2023-10-23T13:42:49,2420,42.8014,5.9826,13.2981,4.59928,2453.830,38.4885
2023-10-23T13:45:49,2420,42.8014,5.9826,13.2978,4.59928,2453.853,38.4889
2023-10-23T13:48:49,2420,42.8014,5.9826,13.2981,4.59928,2453.875,38.4885
2023-10-23T13:51:49,2420,42.8014,5.9826,13.2977,4.59929,2453.867,38.4890
2023-10-23T13:54:49,2420,42.8014,5.9826,13.2977,4.59929,2453.853,38.4890
2023-10-23T13:57:49,2420,42.8014,5.9826,13.2977,4.59928,2453.875,38.4889
2023-10-23T14:00:49,2420,42.8014,5.9826,13.2977,4.59928,2453.875,38.4889
2023-10-23T14:03:49,2420,42.8014,5.9826,13.2978,4.59928,2453.845,38.4887
2023-10-23T14:06:49,2420,42.8014,5.9826,13.2979,4.59927,2453.853,38.4886
2023-10-23T14:09:49,2420,42.8014,5.9826,13.2980,4.59929,2453.830,38.4887
2023-10-23T14:12:49,2420,42.8014,5.9826,13.2978,4.59927,2453.853,38.4887
2023-10-23T14:15:49,2420,42.8014,5.9826,13.2977,4.59928,2453.867,38.4889
2023-10-23T14:18:49,2420,42.8014,5.9826,13.2979,4.59928,2453.875,38.4886
2023-10-23T14:21:49,2420,42.8014,5.9826,13.2979,4.59928,2453.853,38.4886
2023-10-23T14:24:49,2420,42.8014,5.9826,13.2982,4.59929,2453.875,38.4885
2023-10-23T14:27:49,2420,42.8014,5.9826,13.2981,4.59928,2453.815,38.4885
2023-10-23T14:30:49,2420,42.8014,5.9826,13.2981,4.59931,2453.853,38.4888
2023-10-23T14:33:49,2420,42.8014,5.9826,13.2979,4.59928,2453.853,38.4887
2023-10-23T14:36:49,2420,42.8014,5.9826,13.2978,4.59928,2453.875,38.4888
2023-10-23T14:39:49,2420,42.8014,5.9826,13.2977,4.59928,2453.853,38.4889
2023-10-23T14:42:49,2420,42.8014,5.9826,13.2977,4.59928,2453.853,38.4889
2023-10-23T14:45:49,2420,42.8014,5.9826,13.2976,4.59928,2453.875,38.4889
2023-10-23T14:48:49,2420,42.8014,5.9826,13.2980,4.59929,2453.853,38.4887
2023-10-23T14:51:50,2420,42.8014,5.9826,13.2976,4.59927,2453.875,38.4889
2023-10-23T14:54:49,2420,42.8014,5.9826,13.2977,4.59928,2453.875,38.4889
2023-10-23T14:57:49,2420,42.8014,5.9826,13.2984,4.59928,2453.875,38.4882
2023-10-23T15:00:49,2420,42.8014,5.9826,13.2975,4.59928,2453.890,38.4891
2023-10-23T15:03:49,2420,42.8014,5.9826,13.2977,4.59928,2453.875,38.4889
2023-10-23T15:06:49,2420,42.8014,5.9826,13.2978,4.59928,2453.838,38.4888
2023-10-23T15:09:49,2420,42.8014,5.9826,13.2978,4.59928,2453.853,38.4887
2023-10-23T15:12:49,2420,42.8014,5.9826,13.2979,4.59928,2453.875,38.4886
2023-10-23T15:15:49,2420,42.8014,5.9826,13.2976,4.59928,2453.875,38.4890
2023-10-23T15:18:49,2420,42.8014,5.9826,13.2986,4.59928,2453.853,38.4880
2023-10-23T15:21:49,2420,42.8014,5.9826,13.2983,4.59928,2453.853,38.4883
2023-10-23T15:24:49,2420,42.8014,5.9826,13.2981,4.59928,2453.875,38.4885
2023-10-23T15:27:49,2420,42.8014,5.9826,13.2979,4.59928,2453.853,38.4886
2023-10-23T15:30:49,2420,42.8014,5.9826,13.2986,4.59929,2453.875,38.4880
2023-10-23T15:33:49,2420,42.8014,5.9826,13.2979,4.59928,2453.875,38.4887
2023-10-23T15:36:49,2420,42.8014,5.9826,13.2981,4.59928,2453.875,38.4885
2023-10-23T15:39:49,2420,42.8014,5.9826,13.2988,4.59929,2453.861,38.4879
2023-10-23T15:42:49,2420,42.8014,5.9826,13.2982,4.59928,2453.853,38.4884
2023-10-23T15:45:49,2420,42.8014,5.9826,13.2976,4.59928,2453.867,38.4889
2023-10-23T15:48:49,2420,42.8014,5.9826,13.2985,4.59928,2453.853,38.4882
2023-10-23T15:51:49,2420,42.8014,5.9826,13.2979,4.59928,2453.853,38.4886
2023-10-23T15:54:49,2420,42.8014,5.9826,13.2977,4.59927,2453.830,38.4888
2023-10-23T15:57:49,2420,42.8014,5.9826,13.2975,4.59928,2453.875,38.4890
2023-10-23T16:00:49,2420,42.8014,5.9826,13.2975,4.59928,2453.838,38.4890
2023-10-23T16:03:49,2420,42.8014,5.9826,13.2979,4.59928,2453.875,38.4886
2023-10-23T16:06:49,2420,42.8014,5.9826,13.2981,4.59928,2453.853,38.4885
2023-10-23T16:09:49,2420,42.8014,5.9826,13.2980,4.59929,2453.853,38.4887
2023-10-23T16:12:49,2420,42.8014,5.9826,13.2979,4.59928,2453.838,38.4887
2023-10-23T16:15:49,2420,42.8014,5.9826,13.2983,4.59929,2453.853,38.4884
2023-10-23T16:18:49,2420,42.8014,5.9826,13.2979,4.59931,2453.853,38.4889
2023-10-23T16:21:49,2420,42.8014,5.9826,13.2978,4.59934,2453.830,38.4893
2023-10-23T16:24:49,2420,42.8014,5.9826,13.2978,4.59929,2453.853,38.4889
2023-10-23T16:27:49,2420,42.8014,5.9826,13.2981,4.59933,2453.853,38.4889
2023-10-23T16:30:49,2420,42.8014,5.9826,13.2975,4.59934,2453.853,38.4897
2023-10-23T16:33:49,2420,42.8014,5.9826,13.2978,4.59928,2453.830,38.4888
2023-10-23T16:36:49,2420,42.8014,5.9826,13.2982,4.59927,2453.853,38.4883
2023-10-23T16:39:49,2420,42.8014,5.9826,13.2979,4.59927,2453.853,38.4886
2023-10-23T16:42:49,2420,42.8014,5.9826,13.2983,4.59927,2453.853,38.4882
2023-10-23T16:45:49,2420,42.8014,5.9826,13.2974,4.59929,2453.830,38.4893
2023-10-23T16:48:49,2420,42.8014,5.9826,13.2979,4.59932,2453.853,38.4890
2023-10-23T16:51:49,2420,42.8014,5.9826,13.2979,4.59929,2453.853,38.4888
2023-10-23T16:54:49,2420,42.8014,5.9826,13.2978,4.59931,2453.853,38.4891
2023-10-23T16:57:49,2420,42.8014,5.9826,13.2980,4.59929,2453.867,38.4887
2023-10-23T17:00:49,2420,42.8014,5.9826,13.2978,4.59931,2453.853,38.4891
2023-10-23T17:03:49,2420,42.8014,5.9826,13.2978,4.59929,2453.853,38.4889
2023-10-23T17:06:49,2420,42.8014,5.9826,13.2977,4.59928,2453.875,38.4889
2023-10-23T17:09:49,2420,42.8014,5.9826,13.2980,4.59929,2453.853,38.4887
2023-10-23T17:12:49,2420,42.8014,5.9826,13.2978,4.59928,2453.853,38.4887
2023-10-23T17:15:49,2420,42.8014,5.9826,13.2979,4.59929,2453.830,38.4888
2023-10-23T17:18:49,2420,42.8014,5.9826,13.2979,4.59933,2453.807,38.4892
2023-10-23T17:21:49,2420,42.8014,5.9826,13.2979,4.59928,2453.853,38.4887
2023-10-23T17:24:49,2420,42.8014,5.9826,13.2979,4.59928,2453.830,38.4888
2023-10-23T17:27:49,2420,42.8014,5.9826,13.2978,4.59929,2453.830,38.4889
2023-10-23T17:30:49,2420,42.8014,5.9826,13.2977,4.59928,2453.830,38.4890
2023-10-23T17:33:49,2420,42.8014,5.9826,13.2981,4.59929,2453.793,38.4886
2023-10-23T17:36:49,2420,42.8014,5.9826,13.2979,4.59932,2453.807,38.4890
2023-10-23T17:39:49,2420,42.8014,5.9826,13.2979,4.59931,2453.875,38.4890
2023-10-23T17:42:49,2420,42.8014,5.9826,13.2979,4.59935,2453.853,38.4893
2023-10-23T17:45:49,2420,42.8014,5.9826,13.2978,4.59930,2453.830,38.4890
2023-10-23T17:48:49,2420,42.8014,5.9826,13.2980,4.59932,2453.807,38.4890
2023-10-23T17:51:49,2420,42.8014,5.9826,13.2978,4.59931,2453.853,38.4890
2023-10-23T17:54:49,2420,42.8014,5.9826,13.2978,4.59935,2453.830,38.4895
2023-10-23T17:57:49,2420,42.8014,5.9826,13.2979,4.59931,2453.830,38.4889
2023-10-23T18:00:49,2420,42.8014,5.9826,13.2978,4.59932,2453.830,38.4892
2023-10-23T18:03:49,2420,42.8014,5.9826,13.2980,4.59931,2453.807,38.4889
2023-10-23T18:06:49,2420,42.8014,5.9826,13.2978,4.59934,2453.830,38.4894
2023-10-23T18:09:49,2420,42.8014,5.9826,13.2978,4.59931,2453.785,38.4890
2023-10-23T18:12:49,2420,42.8014,5.9826,13.2980,4.59938,2453.807,38.4896
2023-10-23T18:15:49,2420,42.8014,5.9826,13.2979,4.59934,2453.807,38.4892
2023-10-23T18:18:49,2420,42.8014,5.9826,13.2982,4.59935,2453.793,38.4891
2023-10-23T18:21:50,2420,42.8014,5.9826,13.2978,4.59934,2453.830,38.4894
2023-10-23T18:24:49,2420,42.8014,5.9826,13.2980,4.59933,2453.822,38.4890
2023-10-23T18:27:49,2420,42.8014,5.9826,13.2979,4.59940,2453.807,38.4898
2023-10-23T18:30:49,2420,42.8014,5.9826,13.2982,4.59937,2453.785,38.4892
2023-10-23T18:33:50,2420,42.8014,5.9826,13.2982,4.59929,2453.800,38.4886
2023-10-23T18:36:49,2420,42.8014,5.9826,13.2978,4.59935,2453.793,38.4895
2023-10-23T18:39:49,2420,42.8014,5.9826,13.2979,4.59934,2453.807,38.4893
2023-10-23T18:42:49,2420,42.8014,5.9826,13.2978,4.59937,2453.785,38.4897
2023-10-23T18:45:49,2420,42.8014,5.9826,13.2980,4.59931,2453.785,38.4889
2023-10-23T18:48:49,2420,42.8014,5.9826,13.2978,4.59940,2453.785,38.4899
2023-10-23T18:51:49,2420,42.8014,5.9826,13.2984,4.59933,2453.785,38.4887
2023-10-23T18:54:49,2420,42.8014,5.9826,13.2983,4.59941,2453.785,38.4895
2023-10-23T18:57:49,2420,42.8014,5.9826,13.2984,4.59935,2453.785,38.4889
2023-10-23T19:00:49,2420,42.8014,5.9826,13.2980,4.59934,2453.762,38.4892
2023-10-23T19:03:49,2420,42.8014,5.9826,13.2981,4.59932,2453.762,38.4889
2023-10-23T19:06:49,2420,42.8014,5.9826,13.2985,4.59931,2453.785,38.4884
2023-10-23T19:09:49,2420,42.8014,5.9826,13.2978,4.59934,2453.785,38.4894
2023-10-23T19:12:49,2420,42.8014,5.9826,13.2985,4.59937,2453.762,38.4890
2023-10-23T19:15:49,2420,42.8014,5.9826,13.2977,4.59932,2453.740,38.4893
2023-10-23T19:18:53,2420,42.8014,5.9826,13.2980,4.59931,2453.762,38.4889
2023-10-23T19:21:49,2420,42.8014,5.9826,13.2980,4.59937,2453.785,38.4895
2023-10-23T19:24:49,2420,42.8014,5.9826,13.2979,4.59935,2453.777,38.4893
2023-10-23T19:27:49,2420,42.8014,5.9826,13.2984,4.59935,2453.785,38.4889
2023-10-23T19:30:49,2420,42.8014,5.9826,13.2982,4.59941,2453.762,38.4897
2023-10-23T19:33:49,2420,42.8014,5.9826,13.2980,4.59934,2453.770,38.4891
2023-10-23T19:36:49,2420,42.8014,5.9826,13.2985,4.59937,2453.762,38.4890
2023-10-23T19:39:49,2420,42.8014,5.9826,13.2988,4.59937,2453.777,38.4887
2023-10-23T19:42:49,2420,42.8014,5.9826,13.2983,4.59933,2453.762,38.4888
2023-10-23T19:45:49,2420,42.8014,5.9826,13.2986,4.59939,2453.740,38.4891
2023-10-23T19:48:49,2420,42.8014,5.9826,13.2988,4.59932,2453.762,38.4882
2023-10-23T19:51:49,2420,42.8014,5.9826,13.2982,4.59940,2453.762,38.4896
2023-10-23T19:54:49,2420,42.8014,5.9826,13.2984,4.59936,2453.740,38.4890
2023-10-23T19:57:49,2420,42.8014,5.9826,13.2982,4.59943,2453.740,38.4898
2023-10-23T20:00:49,2420,42.8014,5.9826,13.2985,4.59938,2453.740,38.4891
2023-10-23T20:03:49,2420,42.8014,5.9826,13.2982,4.59936,2453.754,38.4892
2023-10-23T20:06:49,2420,42.8014,5.9826,13.2980,4.59937,2453.717,38.4895
2023-10-23T20:09:49,2420,42.8014,5.9826,13.2985,4.59932,2453.740,38.4886
2023-10-23T20:12:49,2420,42.8014,5.9826,13.2979,4.59937,2453.717,38.4895
2023-10-23T20:15:49,2420,42.8014,5.9826,13.2985,4.59936,2453.740,38.4889
2023-10-23T20:18:49,2420,42.8014,5.9826,13.2987,4.59948,2453.762,38.4898
2023-10-23T20:21:49,2420,42.8014,5.9826,13.2986,4.59940,2453.732,38.4892
2023-10-23T20:24:49,2420,42.8014,5.9826,13.2986,4.59940,2453.717,38.4892
2023-10-23T20:27:49,2420,42.8014,5.9826,13.2978,4.59939,2453.725,38.4899
2023-10-23T20:30:50,2420,42.8014,5.9826,13.2986,4.59943,2453.762,38.4894
2023-10-23T20:33:49,2420,42.8014,5.9826,13.2985,4.59946,2453.717,38.4899
2023-10-23T20:36:49,2420,42.8014,5.9826,13.2979,4.59936,2453.717,38.4895
2023-10-23T20:39:49,2420,42.8014,5.9826,13.2984,4.59932,2453.717,38.4886
2023-10-23T20:42:49,2420,42.8014,5.9826,13.2979,4.59942,2453.740,38.4900
2023-10-23T20:45:49,2420,42.8014,5.9826,13.2983,4.59938,2453.717,38.4893
2023-10-23T20:48:49,2420,42.8014,5.9826,13.2981,4.59942,2453.717,38.4898
2023-10-23T20:51:49,2420,42.8014,5.9826,13.2982,4.59933,2453.740,38.4889
2023-10-23T20:54:49,2420,42.8014,5.9826,13.2981,4.59937,2453.717,38.4894
2023-10-23T20:57:49,2420,42.8014,5.9826,13.2983,4.59945,2453.717,38.4899
2023-10-23T21:00:49,2420,42.8014,5.9826,13.2986,4.59946,2453.740,38.4897
2023-10-23T21:03:49,2420,42.8014,5.9826,13.2986,4.59940,2453.717,38.4891
2023-10-23T21:06:49,2420,42.8014,5.9826,13.2985,4.59954,2453.740,38.4906
2023-10-23T21:09:49,2420,42.8014,5.9826,13.2980,4.59953,2453.717,38.4910
2023-10-23T21:12:49,2420,42.8014,5.9826,13.2982,4.59932,2453.695,38.4889
2023-10-23T21:15:49,2420,42.8014,5.9826,13.2983,4.59952,2453.717,38.4906
2023-10-23T21:18:49,2420,42.8014,5.9826,13.2987,4.59945,2453.695,38.4895
2023-10-23T21:21:49,2420,42.8014,5.9826,13.2986,4.59953,2453.717,38.4904
2023-10-23T21:24:49,2420,42.8014,5.9826,13.2983,4.59944,2453.702,38.4898
2023-10-23T21:27:49,2420,42.8014,5.9826,13.2982,4.59948,2453.717,38.4903
2023-10-23T21:30:49,2420,42.8014,5.9826,13.2985,4.59938,2453.732,38.4891
2023-10-23T21:33:49,2420,42.8014,5.9826,13.2984,4.59943,2453.695,38.4896
2023-10-23T21:36:49,2420,42.8014,5.9826,13.2979,4.59941,2453.695,38.4899
2023-10-23T21:39:49,2420,42.8014,5.9826,13.2981,4.59947,2453.717,38.4903
2023-10-23T21:42:49,2420,42.8014,5.9826,13.2981,4.59946,2453.717,38.4903
2023-10-23T21:45:49,2420,42.8014,5.9826,13.2989,4.59943,2453.709,38.4892
2023-10-23T21:48:49,2420,42.8014,5.9826,13.2983,4.59960,2453.740,38.4914
2023-10-23T21:51:49,2420,42.8014,5.9826,13.2985,4.59935,2453.672,38.4888
2023-10-23T21:54:49,2420,42.8014,5.9826,13.2980,4.59940,2453.695,38.4898
2023-10-23T21:57:49,2420,42.8014,5.9826,13.2988,4.59946,2453.717,38.4895
2023-10-23T22:00:50,2420,42.8014,5.9826,13.2989,4.59936,2453.672,38.4885
2023-10-23T22:03:49,2420,42.8014,5.9826,13.2984,4.59965,2453.695,38.4918
2023-10-23T22:06:49,2420,42.8014,5.9826,13.2982,4.59943,2453.695,38.4899
2023-10-23T22:09:49,2420,42.8014,5.9826,13.2981,4.59938,2453.695,38.4895
2023-10-23T22:12:49,2420,42.8014,5.9826,13.2986,4.59950,2453.695,38.4901
2023-10-23T22:15:49,2420,42.8014,5.9826,13.2983,4.59949,2453.695,38.4903
2023-10-23T22:18:49,2420,42.8014,5.9826,13.2981,4.59940,2453.709,38.4896
2023-10-23T22:21:49,2420,42.8014,5.9826,13.2982,4.59954,2453.672,38.4910
2023-10-23T22:24:49,2420,42.8014,5.9826,13.2985,4.59950,2453.702,38.4903
2023-10-23T22:27:49,2420,42.8014,5.9826,13.2981,4.59945,2453.695,38.4901
2023-10-23T22:30:49,2420,42.8014,5.9826,13.2982,4.59949,2453.672,38.4905
2023-10-23T22:33:49,2420,42.8014,5.9826,13.2986,4.59955,2453.695,38.4906
2023-10-23T22:36:49,2420,42.8014,5.9826,13.2986,4.59955,2453.717,38.4906
2023-10-23T22:39:49,2420,42.8014,5.9826,13.2987,4.59955,2453.695,38.4905
2023-10-23T22:42:49,2420,42.8014,5.9826,13.2980,4.59943,2453.635,38.4901
2023-10-23T22:45:49,2420,42.8014,5.9826,13.2989,4.59965,2453.717,38.4913
2023-10-23T22:48:49,2420,42.8014,5.9826,13.2991,4.59950,2453.717,38.4896
2023-10-23T22:51:49,2420,42.8014,5.9826,13.2985,4.59959,2453.702,38.4911
2023-10-23T22:54:49,2420,42.8014,5.9826,13.2983,4.59942,2453.695,38.4896
2023-10-23T22:57:49,2420,42.8014,5.9826,13.2984,4.59957,2453.717,38.4910
2023-10-23T23:00:49,2420,42.8014,5.9826,13.2983,4.59943,2453.695,38.4897
2023-10-23T23:03:49,2420,42.8014,5.9826,13.2983,4.59953,2453.717,38.4907
2023-10-23T23:06:49,2420,42.8014,5.9826,13.2985,4.59940,2453.695,38.4893
2023-10-23T23:09:49,2420,42.8014,5.9826,13.2984,4.59942,2453.680,38.4895
2023-10-23T23:12:49,2420,42.8014,5.9826,13.2984,4.59943,2453.695,38.4896
2023-10-23T23:15:49,2420,42.8014,5.9826,13.2979,4.59942,2453.695,38.4901
2023-10-23T23:18:49,2420,42.8014,5.9826,13.2982,4.59937,2453.717,38.4893
2023-10-23T23:21:49,2420,42.8014,5.9826,13.2984,4.59945,2453.657,38.4898
2023-10-23T23:24:49,2420,42.8014,5.9826,13.2984,4.59943,2453.717,38.4896
2023-10-23T23:27:49,2420,42.8014,5.9826,13.2985,4.59951,2453.687,38.4904
2023-10-23T23:30:49,2420,42.8014,5.9826,13.2980,4.59958,2453.695,38.4915
2023-10-23T23:33:49,2420,42.8014,5.9826,13.2981,4.59955,2453.717,38.4911
2023-10-23T23:36:49,2420,42.8014,5.9826,13.2984,4.59957,2453.695,38.4910
2023-10-23T23:39:49,2420,42.8014,5.9826,13.3008,4.59992,2453.709,38.4920
2023-10-23T23:42:49,2420,42.8014,5.9826,13.2994,4.60016,2453.732,38.4956
2023-10-23T23:45:49,2420,42.8014,5.9826,13.3101,4.59996,2453.695,38.4830